TimeMST,TemperatureF,Dew PointF,Humidity,Sea Level PressureIn,VisibilityMPH,Wind Direction,Wind SpeedMPH,Gust SpeedMPH,PrecipitationIn,Events,Conditions,WindDirDegrees,DateUTC
12:53 AM,35.1,35.1,100,29.56,0.2,ESE,4.6,-,N/A,Fog,Fog,120,2012-11-10 07:53:00
1:53 AM,36.0,35.1,97,29.52,0.5,ESE,4.6,-,N/A,Fog,Fog,120,2012-11-10 08:53:00
2:21 AM,35.6,35.6,100,29.54,1.2,South,4.6,-,N/A,,Overcast,170,2012-11-10 09:21:00
2:29 AM,35.6,35.6,100,29.54,2.0,South,4.6,-,N/A,,Overcast,170,2012-11-10 09:29:00
2:53 AM,36.0,35.1,97,29.52,2.0,SE,4.6,-,0.01,,Overcast,140,2012-11-10 09:53:00
3:01 AM,35.6,35.6,100,29.53,1.5,SE,5.8,-,N/A,,Overcast,140,2012-11-10 10:01:00
3:11 AM,35.6,35.6,100,29.53,2.5,South,3.5,-,N/A,,Overcast,180,2012-11-10 10:11:00
3:21 AM,35.6,35.6,100,29.53,3.0,Calm,Calm,-,N/A,,Overcast,0,2012-11-10 10:21:00
3:33 AM,35.6,35.6,100,29.52,2.5,Calm,Calm,-,N/A,,Overcast,0,2012-11-10 10:33:00
3:53 AM,36.0,35.1,97,29.51,3.0,Calm,Calm,-,N/A,,Overcast,0,2012-11-10 10:53:00
4:06 AM,35.6,35.6,100,29.52,2.5,Calm,Calm,-,N/A,,Overcast,0,2012-11-10 11:06:00
4:43 AM,35.6,35.6,100,29.53,3.0,Calm,Calm,-,N/A,,Overcast,0,2012-11-10 11:43:00
4:53 AM,35.6,35.6,100,29.54,3.0,Calm,Calm,-,N/A,,Overcast,0,2012-11-10 11:53:00
5:26 AM,35.6,35.6,100,29.54,2.5,North,5.8,-,N/A,,Overcast,10,2012-11-10 12:26:00
5:39 AM,35.6,33.8,93,29.54,3.0,North,8.1,-,N/A,,Overcast,10,2012-11-10 12:39:00
5:53 AM,36.0,34.0,93,29.57,5.0,North,9.2,-,N/A,,Overcast,10,2012-11-10 12:53:00
6:02 AM,35.6,33.8,93,29.54,6.0,North,10.4,-,N/A,,Overcast,360,2012-11-10 13:02:00
6:53 AM,35.1,33.1,92,29.60,8.0,North,12.7,-,N/A,,Overcast,350,2012-11-10 13:53:00
7:53 AM,35.1,33.1,92,29.62,7.0,North,11.5,-,N/A,,Overcast,350,2012-11-10 14:53:00
8:53 AM,35.1,33.1,92,29.61,8.0,North,11.5,-,N/A,,Overcast,350,2012-11-10 15:53:00
9:15 AM,35.6,33.8,93,29.58,10.0,North,12.7,-,N/A,,Overcast,360,2012-11-10 16:15:00
9:53 AM,36.0,33.1,89,29.61,10.0,North,18.4,24.2,N/A,,Overcast,10,2012-11-10 16:53:00
10:10 AM,35.6,33.8,93,29.56,10.0,NNE,18.4,23.0,N/A,,Overcast,20,2012-11-10 17:10:00
10:28 AM,33.8,33.8,100,29.56,8.0,NNE,15.0,-,N/A,,Overcast,30,2012-11-10 17:28:00
10:53 AM,35.1,32.0,89,29.57,10.0,NNE,17.3,23.0,N/A,,Overcast,30,2012-11-10 17:53:00
11:53 AM,34.0,30.9,89,29.59,10.0,NNE,12.7,-,N/A,,Overcast,20,2012-11-10 18:53:00
12:33 PM,33.8,30.2,87,29.58,1.8,North,15.0,-,0.00,Snow,Light Snow,360,2012-11-10 19:33:00
12:36 PM,33.8,30.2,87,29.58,1.0,North,13.8,-,0.00,Snow,Light Snow,360,2012-11-10 19:36:00
12:43 PM,32.0,30.2,93,29.58,0.5,North,15.0,-,0.00,Fog-Snow,Snow,360,2012-11-10 19:43:00
12:53 PM,32.0,30.9,96,29.62,0.2,North,10.4,-,0.00,Fog-Snow,Snow,360,2012-11-10 19:53:00
1:01 PM,32.0,30.2,93,29.59,0.5,North,11.5,19.6,0.00,Fog-Snow,Snow,360,2012-11-10 20:01:00
1:16 PM,30.2,30.2,100,29.57,0.5,North,17.3,-,0.00,Fog-Snow,Snow,360,2012-11-10 20:16:00
1:43 PM,30.2,28.4,93,29.58,0.5,North,13.8,-,0.00,Fog-Snow,Snow,10,2012-11-10 20:43:00
1:53 PM,30.0,28.9,96,29.65,0.5,North,16.1,-,0.00,Fog-Snow,Snow,360,2012-11-10 20:53:00
2:53 PM,28.0,25.0,88,29.68,0.8,North,20.7,25.3,0.00,Snow,Light Snow,360,2012-11-10 21:53:00
3:13 PM,26.6,24.8,93,29.64,1.0,North,17.3,-,0.00,Snow,Light Snow,350,2012-11-10 22:13:00
3:21 PM,26.6,24.8,93,29.64,0.8,North,21.9,-,0.00,Snow,Light Snow,350,2012-11-10 22:21:00
3:53 PM,25.0,23.0,92,29.74,0.5,NNW,25.3,29.9,0.00,Fog-Snow,Snow,330,2012-11-10 22:53:00
3:57 PM,24.8,21.2,86,29.69,0.2,NNW,26.5,34.5,0.00,Fog-Snow,Snow,330,2012-11-10 22:57:00
4:05 PM,24.8,21.2,86,29.69,0.5,NNW,24.2,32.2,0.00,Fog-Snow,Snow,330,2012-11-10 23:05:00
4:25 PM,24.8,21.2,86,29.70,0.5,North,23.0,31.1,0.00,Fog-Snow,Snow,350,2012-11-10 23:25:00
4:50 PM,23.0,19.4,86,29.71,1.0,NNW,19.6,-,0.00,Snow,Light Snow,340,2012-11-10 23:50:00
4:53 PM,23.0,19.9,88,29.78,1.0,NNW,19.6,-,0.00,Snow,Light Snow,340,2012-11-10 23:53:00
5:00 PM,23.0,19.4,86,29.72,0.8,NNW,19.6,-,0.00,Snow,Light Snow,340,2012-11-11 00:00:00
5:08 PM,23.0,19.4,86,29.72,1.0,NNW,17.3,-,0.00,Snow,Light Snow,330,2012-11-11 00:08:00
5:18 PM,23.0,19.4,86,29.73,1.2,NNW,18.4,-,0.00,Snow,Light Snow,340,2012-11-11 00:18:00
5:33 PM,23.0,19.4,86,29.74,1.0,NNW,18.4,-,0.00,Snow,Light Snow,340,2012-11-11 00:33:00
5:36 PM,23.0,19.4,86,29.74,1.2,North,15.0,-,0.00,Snow,Light Snow,350,2012-11-11 00:36:00
5:45 PM,23.0,19.4,86,29.75,2.0,North,18.4,-,0.00,Snow,Light Snow,360,2012-11-11 00:45:00
5:53 PM,21.9,19.9,92,29.83,1.8,North,15.0,-,0.00,Snow,Light Snow,360,2012-11-11 00:53:00
6:17 PM,21.2,19.4,93,29.74,2.0,NNW,20.7,-,0.00,Snow,Light Snow,340,2012-11-11 01:17:00
6:50 PM,21.2,15.8,80,29.78,6.0,North,18.4,25.3,0.00,Snow,Light Snow,350,2012-11-11 01:50:00
6:53 PM,21.0,17.1,85,29.87,8.0,North,17.3,-,0.00,Snow,Light Snow,350,2012-11-11 01:53:00
7:17 PM,19.4,15.8,86,29.79,10.0,North,17.3,25.3,0.00,,Overcast,350,2012-11-11 02:17:00
7:28 PM,19.4,15.8,86,29.80,10.0,North,15.0,20.7,0.00,,Overcast,360,2012-11-11 02:28:00
7:35 PM,19.4,15.8,86,29.80,10.0,North,17.3,21.9,0.00,,Overcast,350,2012-11-11 02:35:00
7:53 PM,19.9,14.0,78,29.88,10.0,NNW,19.6,26.5,0.00,,Overcast,340,2012-11-11 02:53:00
8:10 PM,19.4,14.0,80,29.80,10.0,North,16.1,-,0.00,,Overcast,350,2012-11-11 03:10:00
8:34 PM,19.4,14.0,80,29.80,10.0,NNW,17.3,23.0,0.00,,Overcast,340,2012-11-11 03:34:00
8:53 PM,19.4,12.2,74,29.81,10.0,NNW,17.3,24.2,N/A,,Overcast,330,2012-11-11 03:53:00
9:53 PM,18.0,12.0,78,29.92,10.0,NNW,17.3,-,N/A,,Overcast,330,2012-11-11 04:53:00
10:53 PM,18.0,12.0,78,29.92,10.0,NNW,20.7,-,N/A,,Overcast,330,2012-11-11 05:53:00
11:53 PM,17.1,10.0,74,29.95,10.0,NW,16.1,-,N/A,,Overcast,320,2012-11-11 06:53:00